Regional Weather Roundup
Issued by NWS Sioux Falls, SD

Home | Current Version | Previous Version | Text Only | Print | Product List | Glossary On
Versions: 1 2 3 4 5 6 7 8 9 10 11 12 13 14 15 16 17 18 19 20 21 22 23 24 25 26 27 28 29 30 31 32 33 34 35 36 37 38 39 40 41 42 43 44 45 46 47 48 49 50
000
ASUS43 KFSD 010602
RWRFSD

WEATHER ROUNDUP FOR SE SOUTH DAKOTA/SW MINNESOTA/NW IOWA
NATIONAL WEATHER SERVICE SIOUX FALLS SD
100 AM CDT SAT AUG 01 2015

NOTE: "FAIR" INDICATES FEW OR NO CLOUDS BELOW 12,000 FEET WITH NO
SIGNIFICANT WEATHER AND OR OBSTRUCTIONS TO VISIBILITY.


SDZ038>040-050-052>070-010700-
SOUTHEAST SOUTH DAKOTA

CITY           SKY/WX    TMP DP  RH WIND       PRES   REMARKS
BROOKINGS      CLEAR     66  57  72 SW6       30.07S
CHAMBERLAIN    CLEAR     65  62  90 SE6       30.07F
6HR MIN TEMP:  65; 6HR MAX TEMP:  86;

HURON          CLEAR     69  60  73 SW8       30.03F
6HR MIN TEMP:  69; 6HR MAX TEMP:  87;

MADISON        FAIR      66  64  94 SW8       30.08S
MITCHELL       CLEAR     71  65  81 S8        30.06F
6HR MIN TEMP:  71; 6HR MAX TEMP:  85;

SIOUX FALLS    CLEAR     71  63  75 SW3       30.06F
6HR MIN TEMP:  71; 6HR MAX TEMP:  84;

WINNER         FAIR      74  63  68 S8        30.10F
YANKTON        CLEAR     70  66  88 CALM      30.07S
$$

MNZ071-072-080-081-089-090-097-098-010700-
SOUTHWEST MINNESOTA

CITY           SKY/WX    TMP DP  RH WIND       PRES   REMARKS
FAIRMONT       CLEAR     64  54  68 S6        30.04S
JACKSON        CLEAR     68  59  73 SW6       30.06F
LUVERNE        CLEAR     64  61  88 SW7       30.07F
MARSHALL       CLEAR     70  57  64 SW14      30.02F
6HR MIN TEMP:  66; 6HR MAX TEMP:  81;

MONTEVIDEO     CLEAR     66  54  63 W6        30.01S
PIPESTONE      CLEAR     64  61  88 SW5       30.07S
REDWOOD FALLS  CLEAR     65  59  81 S5        30.01S
TRACY          CLEAR     68  61  77 SW9       30.03S
WINDOM         CLEAR     66  61  82 SW7       30.05S
WORTHINGTON    CLEAR     68  57  68 SW9       30.06F
$$

IAZ001>003-012>014-020>022-031-032-NEZ013-014-SDZ071-010700-
NORTHWEST IOWA

CITY           SKY/WX    TMP DP  RH WIND       PRES   REMARKS
DENISON        MOCLDY    70  64  83 CALM      30.08S
ESTHERVILLE    CLEAR     64  60  87 SW7       30.05F
SIOUX CITY     CLEAR     69  65  86 SE3       30.08S
6HR MIN TEMP:  69; 6HR MAX TEMP:  84;

SPENCER        CLEAR     63  57  81 SW5       30.07S
6HR MIN TEMP:  63; 6HR MAX TEMP:  83;

$$

ABBREVIATIONS USED IN REMARKS
   TC - TEMPERATURE IN CELSIUS
  WCI - WIND CHILL INDEX
   HX - HEAT INDEX
  VSB - VISIBILITY




USA.gov is the U.S. government's official web portal to all federal, state and local government web resources and services.